Flag for Germany Weather past 2 weeks in Neu-Ulm, Bavaria, Germany

Now
57 °F

Fog.


Feels Like: 57 °F
Forecast: 47 / 71 °F
Wind: 3 mph from Northeast

Location: Laupheim Airport

Current Time: Sep 15, 2014 at 6:14:46 AM

Latest Report: Sep 15, 2014 at 5:20 AM


Visibility: 0 mi

Pressure: 30.04 "Hg

Humidity: 94%

Dew point: 55 °F

Location of Neu-UlmLocation

Historic Weather in Neu-Ulm — Graph

°F

Neu-Ulm temperature yesterday

Maximum temperature yesterday: 66 °F (at 4:20 PM)
Minimum temperature yesterday: 57 °F (at 12:20 AM)
Average temperature yesterday: 59 °F

Past Weeks' High & Low Weather Summary

 TemperatureHumidityPressure
High77 °F (Sep 8, 2:20 PM)100% (Aug 31, 5:20 AM)30.18 "Hg (Aug 31, 5:20 AM)
Low46 °F (Sep 11, 6:20 AM)50% (Sep 7, 3:20 PM)29.92 "Hg (Sep 6, 3:20 PM)
Average59 °F87%30.05 "Hg
* Reported Aug 31 5:20 AM — Sep 15 5:20 AM, Neu-Ulm, Weather by CustomWeather, © 2014

Note: Actual official high and low records may vary slightly from our data, if they occured in-between our weather recording intervals... More about our weather records

Advertising

Neu-Ulm weather history for previous 24 hours

 ConditionsComfort  
Time TempWeatherWind HumidityBarometerVisibility
5:20 AM
Sep 15
57 °FFog.3 mph94%30.04 "Hg1 mi
4:20 AM55 °FFog.2 mph100%30.04 "Hg2 mi
3:20 AM57 °FFog.5 mph94%30.04 "Hg3 mi
2:20 AM57 °FFog.5 mph94%30.04 "Hg3 mi
1:20 AM57 °FPassing clouds.5 mph94%30.04 "Hg4 mi
12:20 AM57 °FPassing clouds.7 mph94%30.04 "Hg4 mi
11:20 PM
Sep 14
57 °FPassing clouds.6 mph94%30.07 "HgN/A
10:20 PM57 °FPassing clouds.7 mph94%30.07 "HgN/A
9:20 PM57 °FPassing clouds.6 mph94%30.07 "HgN/A
8:20 PM57 °FPassing clouds.6 mph94%30.07 "HgN/A
7:20 PM61 °FCool.9 mph83%30.04 "Hg4 mi
6:20 PM64 °FMild.10 mph73%30.04 "Hg4 mi
5:20 PM66 °FMild.8 mph68%30.04 "Hg4 mi
4:20 PM66 °FMild.8 mph73%30.04 "Hg4 mi
3:20 PM64 °FMild.7 mph73%30.07 "Hg4 mi
2:20 PM63 °FMild.10 mph83%30.07 "Hg4 mi
1:20 PM63 °FMild.7 mph83%30.07 "Hg4 mi
12:20 PM61 °FCool.6 mph88%30.09 "Hg3 mi
11:20 AM59 °FCool.5 mph94%30.09 "Hg3 mi
10:20 AM59 °FCool.6 mph94%30.09 "Hg3 mi
9:20 AM57 °FCool.6 mph94%30.09 "Hg3 mi
8:20 AM57 °FCool.3 mph94%30.09 "Hg2 mi
7:20 AM57 °FCool.6 mph94%30.09 "Hg2 mi
6:20 AM57 °FCool.6 mph94%30.09 "Hg2 mi
Weather by CustomWeather, © 2014

See weather overviewHow to use our weather pages